Time,TemperatureF,DewpointF,PressureIn,WindDirection,WindDirectionDegrees,WindSpeedMPH,WindSpeedGustMPH,Humidity,HourlyPrecipIn,Conditions,Clouds,dailyrainin,SoftwareType,DateUTC
2016-02-14 00:03:00,53.0,47.0,30.29,NNW,346,1.0,2.0,80,0.00,,---,0.00,VWS V13.01,2016-02-14 08:03:00,
2016-02-14 00:08:00,52.7,46.7,30.29,NW,311,4.0,5.0,80,0.00,,---,0.00,VWS V13.01,2016-02-14 08:08:00,
2016-02-14 00:13:00,53.2,47.2,30.29,West,280,1.0,2.0,80,0.00,,---,0.00,VWS V13.01,2016-02-14 08:13:00,
2016-02-14 00:18:00,53.5,47.2,30.29,NW,308,0.0,6.0,79,0.00,,---,0.00,VWS V13.01,2016-02-14 08:18:00,
2016-02-14 00:23:00,53.7,47.3,30.29,WNW,296,3.0,3.0,79,0.00,,---,0.00,VWS V13.01,2016-02-14 08:23:00,
2016-02-14 00:28:00,54.2,47.5,30.29,NW,324,4.0,10.0,78,0.00,,---,0.00,VWS V13.01,2016-02-14 08:28:00,
2016-02-14 00:33:00,54.9,48.2,30.29,NNW,347,5.0,9.0,78,0.00,,---,0.00,VWS V13.01,2016-02-14 08:33:00,
2016-02-14 00:38:00,55.1,48.4,30.29,NW,315,3.0,10.0,78,0.00,,---,0.00,VWS V13.01,2016-02-14 08:38:00,
2016-02-14 00:43:00,55.2,48.5,30.29,NW,313,4.0,8.0,78,0.00,,---,0.00,VWS V13.01,2016-02-14 08:43:00,
2016-02-14 00:48:00,55.1,48.4,30.29,NW,306,4.0,9.0,78,0.00,,---,0.00,VWS V13.01,2016-02-14 08:48:00,
2016-02-14 00:53:00,55.3,48.6,30.29,NW,312,9.0,13.0,78,0.00,,---,0.00,VWS V13.01,2016-02-14 08:53:00,
2016-02-14 00:58:00,55.5,48.4,30.29,NW,309,7.0,13.0,77,0.00,,---,0.00,VWS V13.01,2016-02-14 08:58:00,
2016-02-14 01:03:00,55.5,48.4,30.29,WNW,302,3.0,5.0,77,0.00,,---,0.00,VWS V13.01,2016-02-14 09:03:00,
2016-02-14 01:08:00,55.5,48.4,30.29,North,360,6.0,8.0,77,0.00,,---,0.00,VWS V13.01,2016-02-14 09:08:00,
2016-02-14 01:18:00,55.7,47.9,30.30,NW,315,4.0,10.0,75,0.00,,---,0.00,VWS V13.01,2016-02-14 09:18:00,
2016-02-14 01:23:00,55.9,47.7,30.30,NNW,331,10.0,10.0,74,0.00,,---,0.00,VWS V13.01,2016-02-14 09:23:00,
2016-02-14 01:33:00,56.1,47.6,30.29,NW,313,10.0,13.0,73,0.00,,---,0.00,VWS V13.01,2016-02-14 09:33:00,
2016-02-14 01:38:00,56.2,47.7,30.29,NW,322,10.0,13.0,73,0.00,,---,0.00,VWS V13.01,2016-02-14 09:38:00,
2016-02-14 01:48:00,56.1,47.2,30.28,NNW,330,9.0,12.0,72,0.00,,---,0.00,VWS V13.01,2016-02-14 09:48:00,
2016-02-14 01:53:00,56.0,47.1,30.28,NW,325,3.0,5.0,72,0.00,,---,0.00,VWS V13.01,2016-02-14 09:53:00,
2016-02-14 02:03:00,56.1,46.8,30.28,ENE,57,2.0,2.0,71,0.00,,---,0.00,VWS V13.01,2016-02-14 10:03:00,
2016-02-14 02:08:00,56.1,46.8,30.28,NW,323,3.0,11.0,71,0.00,,---,0.00,VWS V13.01,2016-02-14 10:08:00,
2016-02-14 02:13:00,56.1,47.2,30.28,NNE,18,7.0,7.0,72,0.00,,---,0.00,VWS V13.01,2016-02-14 10:13:00,
2016-02-14 02:18:00,55.9,47.4,30.28,NE,36,3.0,8.0,73,0.00,,---,0.00,VWS V13.01,2016-02-14 10:18:00,
2016-02-14 02:23:00,55.7,47.2,30.28,SW,214,3.0,3.0,73,0.00,,---,0.00,VWS V13.01,2016-02-14 10:23:00,
2016-02-14 02:28:00,55.6,47.1,30.28,West,279,1.0,3.0,73,0.00,,---,0.00,VWS V13.01,2016-02-14 10:28:00,
2016-02-14 02:33:00,55.5,47.4,30.27,NE,53,4.0,8.0,74,0.00,,---,0.00,VWS V13.01,2016-02-14 10:33:00,
2016-02-14 02:38:00,55.3,47.5,30.28,NW,319,2.0,10.0,75,0.00,,---,0.00,VWS V13.01,2016-02-14 10:38:00,
2016-02-14 02:43:00,55.2,47.8,30.28,North,355,2.0,7.0,76,0.00,,---,0.00,VWS V13.01,2016-02-14 10:43:00,
2016-02-14 02:48:00,55.1,47.7,30.28,WNW,284,3.0,8.0,76,0.00,,---,0.00,VWS V13.01,2016-02-14 10:48:00,
2016-02-14 02:53:00,55.1,47.7,30.28,NW,320,3.0,6.0,76,0.00,,---,0.00,VWS V13.01,2016-02-14 10:53:00,
2016-02-14 02:58:00,55.1,47.7,30.28,NW,309,4.0,8.0,76,0.00,,---,0.00,VWS V13.01,2016-02-14 10:58:00,
2016-02-14 03:03:00,55.1,47.3,30.27,NW,304,3.0,4.0,75,0.00,,---,0.00,VWS V13.01,2016-02-14 11:03:00,
2016-02-14 03:08:00,55.0,47.2,30.27,NW,309,9.0,11.0,75,0.00,,---,0.00,VWS V13.01,2016-02-14 11:08:00,
2016-02-14 03:13:00,55.0,47.2,30.27,NW,318,8.0,10.0,75,0.00,,---,0.00,VWS V13.01,2016-02-14 11:13:00,
2016-02-14 03:18:00,55.0,47.2,30.27,WNW,303,3.0,10.0,75,0.00,,---,0.00,VWS V13.01,2016-02-14 11:18:00,
2016-02-14 03:23:00,55.1,47.3,30.27,NW,309,10.0,10.0,75,0.00,,---,0.00,VWS V13.01,2016-02-14 11:23:00,
2016-02-14 03:33:00,55.3,46.8,30.26,WNW,301,2.0,3.0,73,0.00,,---,0.00,VWS V13.01,2016-02-14 11:33:00,
2016-02-14 03:38:00,55.1,46.6,30.26,WNW,297,1.0,3.0,73,0.00,,---,0.00,VWS V13.01,2016-02-14 11:38:00,
2016-02-14 03:43:00,54.7,46.6,30.26,WSW,237,1.0,2.0,74,0.00,,---,0.00,VWS V13.01,2016-02-14 11:43:00,
2016-02-14 03:48:00,54.4,46.7,30.27,NNW,329,4.0,9.0,75,0.00,,---,0.00,VWS V13.01,2016-02-14 11:48:00,
2016-02-14 03:53:00,54.5,46.8,30.27,WNW,291,9.0,12.0,75,0.00,,---,0.00,VWS V13.01,2016-02-14 11:53:00,
2016-02-14 03:58:00,55.7,46.8,30.27,WNW,303,4.0,17.0,72,0.00,,---,0.00,VWS V13.01,2016-02-14 11:58:00,
2016-02-14 04:03:00,56.0,46.7,30.27,West,259,1.0,6.0,71,0.00,,---,0.00,VWS V13.01,2016-02-14 12:03:00,
2016-02-14 04:13:00,55.8,46.9,30.27,WNW,286,2.0,6.0,72,0.00,,---,0.00,VWS V13.01,2016-02-14 12:13:00,
2016-02-14 04:18:00,55.6,46.7,30.28,NNW,344,5.0,13.0,72,0.00,,---,0.00,VWS V13.01,2016-02-14 12:18:00,
2016-02-14 04:23:00,55.3,47.2,30.28,West,276,2.0,5.0,74,0.00,,---,0.00,VWS V13.01,2016-02-14 12:23:00,
2016-02-14 04:28:00,55.2,47.4,30.27,NNW,341,6.0,11.0,75,0.00,,---,0.00,VWS V13.01,2016-02-14 12:28:00,
2016-02-14 04:33:00,55.1,47.7,30.27,North,355,2.0,9.0,76,0.00,,---,0.00,VWS V13.01,2016-02-14 12:33:00,
2016-02-14 04:43:00,55.2,47.1,30.27,WNW,298,1.0,4.0,74,0.00,,---,0.00,VWS V13.01,2016-02-14 12:43:00,
2016-02-14 04:48:00,54.9,47.1,30.27,WNW,298,1.0,4.0,75,0.00,,---,0.00,VWS V13.01,2016-02-14 12:48:00,
2016-02-14 04:54:00,54.5,46.8,30.27,WNW,300,1.0,4.0,75,0.00,,---,0.00,VWS V13.01,2016-02-14 12:54:00,
2016-02-14 04:59:00,54.7,47.3,30.27,WNW,294,10.0,10.0,76,0.00,,---,0.00,VWS V13.01,2016-02-14 12:59:00,
2016-02-14 05:04:00,55.0,47.6,30.27,WNW,296,1.0,9.0,76,0.00,,---,0.00,VWS V13.01,2016-02-14 13:04:00,
2016-02-14 05:09:00,55.1,47.3,30.27,NW,309,3.0,9.0,75,0.00,,---,0.00,VWS V13.01,2016-02-14 13:09:00,
2016-02-14 05:14:00,55.3,47.5,30.28,NW,322,5.0,5.0,75,0.00,,---,0.00,VWS V13.01,2016-02-14 13:14:00,
2016-02-14 05:19:00,55.3,47.5,30.28,WNW,302,2.0,11.0,75,0.00,,---,0.00,VWS V13.01,2016-02-14 13:19:00,
2016-02-14 05:24:00,54.8,47.4,30.28,WNW,296,3.0,4.0,76,0.00,,---,0.00,VWS V13.01,2016-02-14 13:24:00,
2016-02-14 05:29:00,54.2,46.8,30.28,NNW,327,2.0,7.0,76,0.00,,---,0.00,VWS V13.01,2016-02-14 13:29:00,
2016-02-14 05:34:00,53.5,46.1,30.27,NNW,332,2.0,5.0,76,0.00,,---,0.00,VWS V13.01,2016-02-14 13:34:00,
2016-02-14 05:39:00,53.1,46.1,30.27,NW,317,0.0,5.0,77,0.00,,---,0.00,VWS V13.01,2016-02-14 13:39:00,
2016-02-14 05:44:00,52.8,45.8,30.27,NW,317,0.0,1.0,77,0.00,,---,0.00,VWS V13.01,2016-02-14 13:44:00,
2016-02-14 05:54:00,52.3,46.0,30.27,SSW,196,1.0,2.0,79,0.00,,---,0.00,VWS V13.01,2016-02-14 13:54:00,